Nowra Airport

Jump to: basic info | weather | frequencies | runways | comments

Related pages: nearby airports | nearby navaids | notams | map

Basic information (top)

Codes: NOA YSNW
Location: lon -34.948898, lat 150.537003, elev 400 ft / 122 m msl
Status: medium_airport

Weather (top)

Current conditions (rec'd 2014/04/24 03:00Z):

YSNW 240300Z 29021G32KT CAVOK 26/07 Q1010 FM0300 MOD TURB BLW 5000FT

Airport forecast for Sydney Kingsford Smith International Airport 68nm (126km) NNE (rec'd 2014/04/23 00:35Z):

TAF YSSY 232312Z 2400/2506 30008KT CAVOK 
     FM240500 13010KT CAVOK 
     FM240900 21010KT CAVOK 
     FM241200 16015G25KT 9999 -SHRA SCT020 BKN030 
     FM241800 13015KT 9999 -SHRA SCT015 BKN025 
     FM250200 06012KT 9999 -SHRA SCT020 SCT030 INTER 2415/2502 5000 SHRA BKN015

Frequencies (top)

Verify before use: may be inaccurate or out of date.

APP: 123.5 MHz (APP)
ATIS: 28.04 MHz (ATIS)
CLD: 128.35 MHz (CLNC DEL)
CTAF: 118.85 MHz (CTAF)
FSS: 121.2 MHz (MELBOURNE CNTR)
GND: 135.85 MHz (GND)
TWR: 118.85 MHz (TWR)

Runways (top)

03/21: 6,713 x 148 ft (2,046 x 45 m) — paved — lighted

08/26: 6,870 x 148 ft (2,094 x 45 m) — paved — lighted — threshold 26 displaced 298 ft (91 m)

Latest comments (top)

No comments yet for Nowra Airport

More... (top)

See also NOTAMs and nearby airports and navaids, or visit the Nowra Airport page at the main OurAirports website..